When you browse on this site, cookies collect data to enhance your experience and personalize the content and advertising you see.
Visit our Privacy Policy to learn more. By continuing to use the site, you agree to this use of cookies and data.
  • In Spain
  • List of Countries
  • For 7 days
  • Water Temperature
  • Weather Map
  • Weather Widgets
  • user-avatar
    Login

    Hourly Weather Igls

    Today, 1 April, Wednesday

    Time Temperature Precipitation Wind Pressure Humidity
    00:00 -7°C° 0 mm 1 mps 687 mmHg 78%
    01:00 -7°C° 0 mm 1 mps 686 mmHg 76%
    02:00 -7°C° 0 mm 1 mps 686 mmHg 72%
    03:00 -7°C° 0 mm 1 mps 685 mmHg 68%
    04:00 -7°C° 0 mm 1 mps 685 mmHg 64%
    05:00 -6°C° 0 mm 1 mps 685 mmHg 60%
    06:00 -4°C° 0 mm 1 mps 685 mmHg 56%
    07:00 -2°C° 0 mm 1 mps 685 mmHg 53%
    08:00 0°C° 0 mm 1 mps 685 mmHg 48%
    09:00 +3°C° 0 mm 1 mps 685 mmHg 43%
    10:00 +6°C° 0 mm 1 mps 685 mmHg 38%
    11:00 +7°C° 0 mm 1 mps 685 mmHg 42%
    12:00 +8°C° 0 mm 1 mps 685 mmHg 46%
    13:00 +9°C° 0 mm 1 mps 684 mmHg 49%
    14:00 +9°C° 0 mm 1 mps 684 mmHg 51%
    15:00 +8°C° 0 mm 1 mps 683 mmHg 54%
    16:00 +8°C° 0 mm 1 mps 683 mmHg 56%
    17:00 +6°C° 0 mm 1 mps 682 mmHg 65%
    18:00 +3°C° 0 mm 1 mps 682 mmHg 74%
    19:00 0°C° 0 mm 0 mps 682 mmHg 83%
    20:00 -1°C° 0 mm 0 mps 682 mmHg 81%
    21:00 0°C° 0 mm 1 mps 682 mmHg 80%
    22:00 0°C° 0 mm 1 mps 682 mmHg 79%
    23:00 0°C° 0 mm 1 mps 682 mmHg 78%

    Tomorrow, 2 April, Thursday

    Time Temperature Precipitation Wind Pressure Humidity
    00:00 0°C° 0 mm 1 mps 682 mmHg 77%
    01:00 -1°C° 0 mm 1 mps 682 mmHg 76%
    02:00 -1°C° 0 mm 1 mps 682 mmHg 75%
    03:00 -1°C° 0 mm 1 mps 681 mmHg 73%
    04:00 -1°C° 0 mm 1 mps 681 mmHg 72%
    05:00 0°C° 0 mm 1 mps 681 mmHg 70%
    06:00 0°C° 0 mm 1 mps 681 mmHg 69%
    07:00 +1°C° 0 mm 1 mps 681 mmHg 67%
    08:00 +4°C° 0 mm 1 mps 681 mmHg 62%
    09:00 +6°C° 0 mm 1 mps 681 mmHg 58%
    10:00 +9°C° 0 mm 1 mps 681 mmHg 54%
    11:00 +9°C° 0 mm 1 mps 681 mmHg 53%
    12:00 +10°C° 0 mm 1 mps 681 mmHg 51%
    13:00 +11°C° 0 mm 1 mps 681 mmHg 50%
    14:00 +11°C° 0 mm 1 mps 680 mmHg 52%
    15:00 +10°C° 0 mm 1 mps 679 mmHg 54%
    16:00 +10°C° 0 mm 1 mps 679 mmHg 56%
    17:00 +8°C° 0 mm 1 mps 679 mmHg 66%
    18:00 +6°C° 0 mm 1 mps 679 mmHg 76%
    19:00 +3°C° 0 mm 1 mps 679 mmHg 86%
    20:00 +3°C° 0 mm 1 mps 679 mmHg 87%
    21:00 +2°C° 0 mm 1 mps 679 mmHg 87%
    22:00 +2°C° 0 mm 1 mps 679 mmHg 88%
    23:00 +2°C° 0 mm 1 mps 679 mmHg 88%

    Day after tomorrow, 3 April, Friday

    Time Temperature Precipitation Wind Pressure Humidity
    00:00 +1°C° 0 mm 1 mps 679 mmHg 88%
    01:00 +1°C° 0 mm 1 mps 680 mmHg 88%
    02:00 +1°C° 0 mm 1 mps 680 mmHg 88%
    03:00 +1°C° 0 mm 1 mps 680 mmHg 89%
    04:00 0°C° 0 mm 1 mps 680 mmHg 89%
    05:00 +1°C° 0 mm 1 mps 680 mmHg 88%
    06:00 +1°C° 0 mm 1 mps 680 mmHg 87%
    07:00 +2°C° 0 mm 1 mps 681 mmHg 86%
    08:00 +4°C° 0 mm 1 mps 681 mmHg 82%
    09:00 +5°C° 0 mm 1 mps 681 mmHg 78%
    10:00 +7°C° 0 mm 1 mps 682 mmHg 74%
    11:00 +7°C° 0.1 mm 1 mps 682 mmHg 73%
    12:00 +8°C° 0.1 mm 1 mps 682 mmHg 72%
    13:00 +8°C° 0.1 mm 1 mps 682 mmHg 70%
    14:00 +8°C° 0.1 mm 1 mps 682 mmHg 72%
    15:00 +8°C° 0.1 mm 1 mps 681 mmHg 73%
    16:00 +7°C° 0.1 mm 2 mps 681 mmHg 75%
    17:00 +7°C° 0.1 mm 1 mps 682 mmHg 82%
    18:00 +6°C° 0.1 mm 1 mps 682 mmHg 89%
    19:00 +4°C° 0.1 mm 1 mps 682 mmHg 96%
    20:00 +4°C° 0.1 mm 1 mps 683 mmHg 96%
    21:00 +4°C° 0.1 mm 1 mps 683 mmHg 96%
    22:00 +4°C° 0.1 mm 1 mps 684 mmHg 97%
    23:00 +3°C° 0 mm 1 mps 684 mmHg 96%

    4 April, Saturday

    Time Temperature Precipitation Wind Pressure Humidity
    00:00 +3°C° 0 mm 1 mps 684 mmHg 95%
    01:00 +2°C° 0 mm 0 mps 684 mmHg 95%
    02:00 +1°C° 0 mm 0 mps 684 mmHg 93%
    03:00 +1°C° 0 mm 0 mps 685 mmHg 92%
    04:00 +1°C° 0 mm 0 mps 685 mmHg 91%
    05:00 +1°C° 0 mm 0 mps 685 mmHg 89%
    06:00 +2°C° 0 mm 0 mps 685 mmHg 86%
    07:00 +2°C° 0 mm 0 mps 686 mmHg 84%
    08:00 +4°C° 0 mm 0 mps 686 mmHg 77%
    09:00 +7°C° 0 mm 1 mps 686 mmHg 70%
    10:00 +9°C° 0 mm 1 mps 686 mmHg 64%
    11:00 +10°C° 0 mm 1 mps 687 mmHg 61%
    12:00 +11°C° 0 mm 1 mps 687 mmHg 58%
    13:00 +12°C° 0 mm 1 mps 687 mmHg 56%
    14:00 +12°C° 0 mm 1 mps 687 mmHg 57%
    15:00 +12°C° 0 mm 1 mps 686 mmHg 58%
    16:00 +12°C° 0 mm 1 mps 686 mmHg 59%
    17:00 +10°C° 0 mm 1 mps 686 mmHg 69%
    18:00 +7°C° 0 mm 1 mps 686 mmHg 79%
    19:00 +4°C° 0 mm 0 mps 686 mmHg 89%
    20:00 +5°C° 0 mm 1 mps 687 mmHg 88%
    21:00 +5°C° 0 mm 1 mps 687 mmHg 88%
    22:00 +4°C° 0 mm 1 mps 688 mmHg 88%
    23:00 +4°C° 0 mm 1 mps 688 mmHg 88%

    5 April, Sunday

    Time Temperature Precipitation Wind Pressure Humidity
    00:00 +3°C° 0 mm 2 mps 688 mmHg 87%
    01:00 +3°C° 0 mm 2 mps 688 mmHg 87%
    02:00 +3°C° 0 mm 2 mps 688 mmHg 86%
    03:00 +3°C° 0 mm 2 mps 688 mmHg 85%
    04:00 +3°C° 0 mm 2 mps 688 mmHg 85%
    05:00 +4°C° 0 mm 2 mps 689 mmHg 82%
    06:00 +4°C° 0 mm 2 mps 689 mmHg 78%
    07:00 +5°C° 0 mm 2 mps 689 mmHg 75%
    08:00 +7°C° 0 mm 2 mps 689 mmHg 67%
    09:00 +11°C° 0 mm 1 mps 689 mmHg 58%
    10:00 +13°C° 0 mm 1 mps 689 mmHg 50%
    11:00 +14°C° 0 mm 1 mps 689 mmHg 47%
    12:00 +16°C° 0 mm 1 mps 689 mmHg 44%
    13:00 +18°C° 0 mm 1 mps 689 mmHg 41%
    14:00 +18°C° 0 mm 1 mps 689 mmHg 43%
    15:00 +16°C° 0 mm 1 mps 688 mmHg 44%
    16:00 +16°C° 0 mm 1 mps 688 mmHg 46%
    17:00 +14°C° 0 mm 2 mps 688 mmHg 56%
    18:00 +10°C° 0 mm 2 mps 687 mmHg 66%
    19:00 +7°C° 0 mm 2 mps 687 mmHg 76%
    20:00 +7°C° 0 mm 2 mps 687 mmHg 78%
    21:00 +5°C° 0 mm 3 mps 688 mmHg 80%
    22:00 +5°C° 0 mm 3 mps 688 mmHg 82%
    23:00 +4°C° 0 mm 3 mps 688 mmHg 84%

    6 April, Monday

    Time Temperature Precipitation Wind Pressure Humidity
    00:00 +4°C° 0 mm 3 mps 688 mmHg 86%
    01:00 +4°C° 0 mm 3 mps 688 mmHg 88%
    02:00 +4°C° 0 mm 3 mps 688 mmHg 88%
    03:00 +4°C° 0 mm 3 mps 689 mmHg 88%
    04:00 +4°C° 0 mm 3 mps 689 mmHg 88%
    05:00 +4°C° 0 mm 3 mps 689 mmHg 85%
    06:00 +4°C° 0 mm 3 mps 689 mmHg 81%
    07:00 +6°C° 0 mm 2 mps 689 mmHg 78%
    08:00 +8°C° 0 mm 2 mps 689 mmHg 69%
    09:00 +10°C° 0 mm 2 mps 690 mmHg 59%
    10:00 +14°C° 0 mm 2 mps 690 mmHg 49%
    11:00 +15°C° 0 mm 2 mps 690 mmHg 45%
    12:00 +16°C° 0 mm 2 mps 690 mmHg 41%
    13:00 +17°C° 0 mm 2 mps 690 mmHg 36%
    14:00 +17°C° 0 mm 2 mps 690 mmHg 37%
    15:00 +17°C° 0 mm 2 mps 690 mmHg 38%
    16:00 +17°C° 0 mm 2 mps 690 mmHg 38%
    17:00 +14°C° 0 mm 2 mps 690 mmHg 49%
    18:00 +12°C° 0 mm 2 mps 689 mmHg 60%
    19:00 +8°C° 0 mm 2 mps 689 mmHg 71%
    20:00 +8°C° 0 mm 2 mps 690 mmHg 72%
    21:00 +7°C° 0 mm 2 mps 690 mmHg 72%
    22:00 +6°C° 0 mm 2 mps 691 mmHg 73%
    23:00 +6°C° 0 mm 2 mps 691 mmHg 75%
    Show more